Year,Month,Day,Hour,Minute,Value (Times are PST for temperature in C)
2016,02,12,00,00,9.90
2016,02,12,00,01,9.90
2016,02,12,00,02,9.90
2016,02,12,00,03,9.90
2016,02,12,00,04,9.90
2016,02,12,00,05,9.90
2016,02,12,00,06,9.90
2016,02,12,00,07,9.90
2016,02,12,00,08,9.90
2016,02,12,00,09,9.90
2016,02,12,00,10,9.90
2016,02,12,00,11,9.90
2016,02,12,00,12,9.90
2016,02,12,00,13,9.90
2016,02,12,00,14,9.90
2016,02,12,00,15,9.90
2016,02,12,00,16,9.90
2016,02,12,00,17,9.90
2016,02,12,00,18,9.90
2016,02,12,00,19,9.90
2016,02,12,00,20,9.90
2016,02,12,00,21,10.00
2016,02,12,00,22,10.00
2016,02,12,00,23,10.00
2016,02,12,00,24,10.00
2016,02,12,00,25,10.00
2016,02,12,00,26,10.00
2016,02,12,00,27,10.00
2016,02,12,00,28,10.00
2016,02,12,00,29,10.00
2016,02,12,00,30,10.00
2016,02,12,00,31,10.00
2016,02,12,00,32,10.00
2016,02,12,00,33,10.00
2016,02,12,00,34,9.90
2016,02,12,00,35,9.90
2016,02,12,00,36,9.90
2016,02,12,00,37,9.90
2016,02,12,00,38,9.90
2016,02,12,00,39,9.90
2016,02,12,00,40,9.90
2016,02,12,00,41,9.90
2016,02,12,00,42,9.90
2016,02,12,00,43,9.90
2016,02,12,00,44,9.90
2016,02,12,00,45,9.90
2016,02,12,00,46,9.90
2016,02,12,00,47,9.90
2016,02,12,00,48,9.90
2016,02,12,00,49,9.90
2016,02,12,00,50,9.90
2016,02,12,00,51,9.90
2016,02,12,00,52,9.90
2016,02,12,00,53,9.90
2016,02,12,00,54,9.90
2016,02,12,00,55,9.90
2016,02,12,00,56,9.90
2016,02,12,00,57,9.90
2016,02,12,00,58,9.90
2016,02,12,00,59,9.90
2016,02,12,01,00,9.90
2016,02,12,01,01,9.90
2016,02,12,01,02,9.90
2016,02,12,01,03,9.90
2016,02,12,01,04,9.90
2016,02,12,01,05,9.90
2016,02,12,01,06,9.90
2016,02,12,01,07,9.90
2016,02,12,01,08,9.90
2016,02,12,01,09,9.90
2016,02,12,01,10,9.80
2016,02,12,01,11,9.80
2016,02,12,01,12,9.80
2016,02,12,01,13,9.80
2016,02,12,01,14,9.80
2016,02,12,01,15,9.80
2016,02,12,01,16,9.80
2016,02,12,01,17,9.80
2016,02,12,01,18,9.80
2016,02,12,01,19,9.80
2016,02,12,01,20,9.80
2016,02,12,01,21,9.80
2016,02,12,01,22,9.80
2016,02,12,01,23,9.80
2016,02,12,01,24,9.80
2016,02,12,01,25,9.80
2016,02,12,01,26,9.80
2016,02,12,01,27,9.80
2016,02,12,01,28,9.80
2016,02,12,01,29,9.80
2016,02,12,01,30,9.80
2016,02,12,01,31,9.80
2016,02,12,01,32,9.80
2016,02,12,01,33,9.80
2016,02,12,01,34,9.80
2016,02,12,01,35,9.70
2016,02,12,01,36,9.70
2016,02,12,01,37,9.70
2016,02,12,01,38,9.70
2016,02,12,01,39,9.70
2016,02,12,01,40,9.70
2016,02,12,01,41,9.70
2016,02,12,01,42,9.70
2016,02,12,01,43,9.70
2016,02,12,01,44,9.70
2016,02,12,01,45,9.70
2016,02,12,01,46,9.70
2016,02,12,01,47,9.70
2016,02,12,01,48,9.70
2016,02,12,01,49,9.70
2016,02,12,01,50,9.70
2016,02,12,01,51,9.70
2016,02,12,01,52,9.70
2016,02,12,01,53,9.70
2016,02,12,01,54,9.70
2016,02,12,01,55,9.70
2016,02,12,01,56,9.70
2016,02,12,01,57,9.70
2016,02,12,01,58,9.70
2016,02,12,01,59,9.70
2016,02,12,02,00,9.70
2016,02,12,02,01,9.70
2016,02,12,02,02,9.70
2016,02,12,02,03,9.70
2016,02,12,02,04,9.70
2016,02,12,02,05,9.70
2016,02,12,02,06,9.70
2016,02,12,02,07,9.70
2016,02,12,02,08,9.70
2016,02,12,02,09,9.70
2016,02,12,02,10,9.70
2016,02,12,02,11,9.70
2016,02,12,02,12,9.70
2016,02,12,02,13,9.60
2016,02,12,02,14,9.70
2016,02,12,02,15,9.60
2016,02,12,02,16,9.60
2016,02,12,02,17,9.60
2016,02,12,02,18,9.60
2016,02,12,02,19,9.60
2016,02,12,02,20,9.60
2016,02,12,02,21,9.60
2016,02,12,02,22,9.60
2016,02,12,02,23,9.60
2016,02,12,02,24,9.60
2016,02,12,02,25,9.60
2016,02,12,02,26,9.60
2016,02,12,02,27,9.60
2016,02,12,02,28,9.60
2016,02,12,02,29,9.60
2016,02,12,02,30,9.60
2016,02,12,02,31,9.60
2016,02,12,02,32,9.60
2016,02,12,02,33,9.60
2016,02,12,02,34,9.60
2016,02,12,02,35,9.60
2016,02,12,02,36,9.60
2016,02,12,02,37,9.60
2016,02,12,02,38,9.60
2016,02,12,02,39,9.50
2016,02,12,02,40,9.50
2016,02,12,02,41,9.50
2016,02,12,02,42,9.50
2016,02,12,02,43,9.50
2016,02,12,02,44,9.50
2016,02,12,02,45,9.50
2016,02,12,02,46,9.50
2016,02,12,02,47,9.50
2016,02,12,02,48,9.50
2016,02,12,02,49,9.50
2016,02,12,02,50,9.50
2016,02,12,02,51,9.50
2016,02,12,02,52,9.50
2016,02,12,02,53,9.40
2016,02,12,02,54,9.40
2016,02,12,02,55,9.40
2016,02,12,02,56,9.40
2016,02,12,02,57,9.40
2016,02,12,02,58,9.40
2016,02,12,02,59,9.40
2016,02,12,03,00,9.40
2016,02,12,03,01,9.40
2016,02,12,03,02,9.40
2016,02,12,03,03,9.40
2016,02,12,03,04,9.40
2016,02,12,03,05,9.40
2016,02,12,03,06,9.40
2016,02,12,03,07,9.40
2016,02,12,03,08,9.40
2016,02,12,03,09,9.40
2016,02,12,03,10,9.40
2016,02,12,03,11,9.40
2016,02,12,03,12,9.40
2016,02,12,03,13,9.40
2016,02,12,03,14,9.40
2016,02,12,03,15,9.40
2016,02,12,03,16,9.40
2016,02,12,03,17,9.40
2016,02,12,03,18,9.40
2016,02,12,03,19,9.40
2016,02,12,03,20,9.40
2016,02,12,03,21,9.30
2016,02,12,03,22,9.30
2016,02,12,03,23,9.30
2016,02,12,03,24,9.30
2016,02,12,03,25,9.30
2016,02,12,03,26,9.30
2016,02,12,03,27,9.30
2016,02,12,03,28,9.30
2016,02,12,03,29,9.30
2016,02,12,03,30,9.30
2016,02,12,03,31,9.20
2016,02,12,03,32,9.20
2016,02,12,03,33,9.20
2016,02,12,03,34,9.20
2016,02,12,03,35,9.20
2016,02,12,03,36,9.20
2016,02,12,03,37,9.20
2016,02,12,03,38,9.20
2016,02,12,03,39,9.20
2016,02,12,03,40,9.20
2016,02,12,03,41,9.20
2016,02,12,03,42,9.20
2016,02,12,03,43,9.10
2016,02,12,03,44,9.10
2016,02,12,03,45,9.10
2016,02,12,03,46,9.10
2016,02,12,03,47,9.10
2016,02,12,03,48,9.10
2016,02,12,03,49,9.10
2016,02,12,03,50,9.10
2016,02,12,03,51,9.10
2016,02,12,03,52,9.10
2016,02,12,03,53,9.10
2016,02,12,03,54,9.10
2016,02,12,03,55,9.10
2016,02,12,03,56,9.00
2016,02,12,03,57,9.00
2016,02,12,03,58,9.00
2016,02,12,03,59,9.00
2016,02,12,04,00,9.00
2016,02,12,04,01,9.00
2016,02,12,04,02,9.00
2016,02,12,04,03,9.10
2016,02,12,04,04,9.10
2016,02,12,04,05,9.10
2016,02,12,04,06,9.10
2016,02,12,04,07,9.10
2016,02,12,04,08,9.10
2016,02,12,04,09,9.10
2016,02,12,04,10,9.10
2016,02,12,04,11,9.10
2016,02,12,04,12,9.10
2016,02,12,04,13,9.10
2016,02,12,04,14,9.10
2016,02,12,04,15,9.10
2016,02,12,04,16,9.10
2016,02,12,04,17,9.10
2016,02,12,04,18,9.10
2016,02,12,04,19,9.10
2016,02,12,04,20,9.10
2016,02,12,04,21,9.10
2016,02,12,04,22,9.10
2016,02,12,04,23,9.10
2016,02,12,04,24,9.10
2016,02,12,04,25,9.10
2016,02,12,04,26,9.10
2016,02,12,04,27,9.10
2016,02,12,04,28,9.10
2016,02,12,04,29,9.10
2016,02,12,04,30,9.10
2016,02,12,04,31,9.10
2016,02,12,04,32,9.10
2016,02,12,04,33,9.10
2016,02,12,04,34,9.10
2016,02,12,04,35,9.10
2016,02,12,04,36,9.00
2016,02,12,04,37,9.00
2016,02,12,04,38,9.00
2016,02,12,04,39,9.00
2016,02,12,04,40,9.00
2016,02,12,04,41,8.90
2016,02,12,04,42,8.90
2016,02,12,04,43,8.90
2016,02,12,04,44,8.90
2016,02,12,04,45,8.90
2016,02,12,04,46,8.90
2016,02,12,04,47,8.90
2016,02,12,04,48,8.90
2016,02,12,04,49,8.90
2016,02,12,04,50,8.80
2016,02,12,04,51,8.80
2016,02,12,04,52,8.80
2016,02,12,04,53,8.80
2016,02,12,04,54,8.80
2016,02,12,04,55,8.80
2016,02,12,04,56,8.80
2016,02,12,04,57,8.80
2016,02,12,04,58,8.80
2016,02,12,04,59,8.80
2016,02,12,05,00,8.80
2016,02,12,09,48,9.90
2016,02,12,09,49,9.90
2016,02,12,09,50,9.90
2016,02,12,09,51,9.90
2016,02,12,09,52,10.00
2016,02,12,09,53,10.10
2016,02,12,09,54,10.10
2016,02,12,09,55,10.20
2016,02,12,09,56,10.30
2016,02,12,09,57,10.40
2016,02,12,09,58,10.40
2016,02,12,09,59,10.50
2016,02,12,10,00,10.60
2016,02,12,10,01,10.60
2016,02,12,10,02,10.70
2016,02,12,10,03,10.70
2016,02,12,10,04,10.80
2016,02,12,10,05,10.80
2016,02,12,10,06,10.80
2016,02,12,10,07,10.80
2016,02,12,10,08,10.80
2016,02,12,10,09,10.80
2016,02,12,10,10,10.80
2016,02,12,10,11,10.80
2016,02,12,10,12,10.80
2016,02,12,10,13,10.80
2016,02,12,10,14,10.80
2016,02,12,10,15,10.80
2016,02,12,10,16,10.80
2016,02,12,10,17,10.80
2016,02,12,10,18,10.80
2016,02,12,10,19,10.80
2016,02,12,10,20,10.80
2016,02,12,10,21,10.80
2016,02,12,10,22,10.80
2016,02,12,10,23,10.70
2016,02,12,10,24,10.70
2016,02,12,10,25,10.70
2016,02,12,10,26,10.60
2016,02,12,10,27,10.60
2016,02,12,10,28,10.50
2016,02,12,10,29,10.50
2016,02,12,10,30,10.50
2016,02,12,10,31,10.50
2016,02,12,10,32,10.40
2016,02,12,10,33,10.40
2016,02,12,10,34,10.40
2016,02,12,10,35,10.50
2016,02,12,10,36,10.50
2016,02,12,10,37,10.50
2016,02,12,10,38,10.50
2016,02,12,10,39,10.60
2016,02,12,10,40,10.60
2016,02,12,10,41,10.60
2016,02,12,10,42,10.60
2016,02,12,10,43,10.60
2016,02,12,10,44,10.60
2016,02,12,10,45,10.60
2016,02,12,10,46,10.70
2016,02,12,10,47,10.70
2016,02,12,10,48,10.70
2016,02,12,10,49,10.70
2016,02,12,10,50,10.70
2016,02,12,10,51,10.80
2016,02,12,10,52,10.80
2016,02,12,10,53,10.80
2016,02,12,10,54,10.90
2016,02,12,10,55,10.90
2016,02,12,10,56,10.90
2016,02,12,10,57,11.00
2016,02,12,10,58,11.00
2016,02,12,10,59,11.00
2016,02,12,11,00,11.10
2016,02,12,11,01,11.10
2016,02,12,11,02,11.10
2016,02,12,11,03,11.10
2016,02,12,11,04,11.10
2016,02,12,11,05,11.20
2016,02,12,11,06,11.20
2016,02,12,11,07,11.20
2016,02,12,11,08,11.30
2016,02,12,11,09,11.30
2016,02,12,11,10,11.30
2016,02,12,11,11,11.30
2016,02,12,11,12,11.40
2016,02,12,11,13,11.40
2016,02,12,11,14,11.50
2016,02,12,11,15,11.50
2016,02,12,11,16,11.60
2016,02,12,11,17,11.60
2016,02,12,11,18,11.70
2016,02,12,11,19,11.70
2016,02,12,11,20,11.80
2016,02,12,11,21,11.80
2016,02,12,11,22,11.80
2016,02,12,11,23,11.80
2016,02,12,11,24,11.90
2016,02,12,11,25,11.90
2016,02,12,11,26,12.00
2016,02,12,11,27,12.00
2016,02,12,11,28,12.10
2016,02,12,11,29,12.10
2016,02,12,11,30,12.20
2016,02,12,11,31,12.20
2016,02,12,11,32,12.20
2016,02,12,11,33,12.30
2016,02,12,11,34,12.30
2016,02,12,11,35,12.30
2016,02,12,11,36,12.30
2016,02,12,11,37,12.40
2016,02,12,11,38,12.40
2016,02,12,11,39,12.40
2016,02,12,11,40,12.40
2016,02,12,11,41,12.40
2016,02,12,11,42,12.40
2016,02,12,11,43,12.40
2016,02,12,11,44,12.50
2016,02,12,11,45,12.50
2016,02,12,11,46,12.50
2016,02,12,11,47,12.50
2016,02,12,11,48,12.60
2016,02,12,11,49,12.60
2016,02,12,11,50,12.60
2016,02,12,11,51,12.60
2016,02,12,11,52,12.60
2016,02,12,11,53,12.60
2016,02,12,11,54,12.60
2016,02,12,11,55,12.60
2016,02,12,11,56,12.60
2016,02,12,11,57,12.60
2016,02,12,11,58,12.70
2016,02,12,11,59,12.70
2016,02,12,12,00,12.70
2016,02,12,12,01,12.70
2016,02,12,12,02,12.70
2016,02,12,12,03,12.70
2016,02,12,12,04,12.70
2016,02,12,12,05,12.70
2016,02,12,12,06,12.70
2016,02,12,12,07,12.80
2016,02,12,12,08,12.80
2016,02,12,12,09,12.80
2016,02,12,12,10,12.80
2016,02,12,12,11,12.80
2016,02,12,12,12,12.90
2016,02,12,12,13,12.90
2016,02,12,12,14,12.90
2016,02,12,12,15,12.90
2016,02,12,12,16,12.90
2016,02,12,12,17,12.90
2016,02,12,12,18,12.90
2016,02,12,12,19,12.90
2016,02,12,12,20,12.90
2016,02,12,12,21,13.00
2016,02,12,12,22,13.00
2016,02,12,12,23,13.00
2016,02,12,12,24,13.00
2016,02,12,12,25,13.00
2016,02,12,12,26,13.10
2016,02,12,12,27,13.10
2016,02,12,12,28,13.10
2016,02,12,12,29,13.10
2016,02,12,12,30,13.10
2016,02,12,12,31,13.00
2016,02,12,12,32,13.00
2016,02,12,12,33,13.10
2016,02,12,12,34,13.00
2016,02,12,12,35,13.10
2016,02,12,12,36,13.10
2016,02,12,12,37,13.10
2016,02,12,12,38,13.10
2016,02,12,12,39,13.10
2016,02,12,12,40,13.10
2016,02,12,12,41,13.10
2016,02,12,12,42,13.10
2016,02,12,12,43,13.20
2016,02,12,12,44,13.20
2016,02,12,12,45,13.20
2016,02,12,12,46,13.20
2016,02,12,12,47,13.30
2016,02,12,12,48,13.30
2016,02,12,12,49,13.30
2016,02,12,12,50,13.30
2016,02,12,12,51,13.30
2016,02,12,12,52,13.30
2016,02,12,12,53,13.40
2016,02,12,12,54,13.40
2016,02,12,12,55,13.40
2016,02,12,12,56,13.40
2016,02,12,12,57,13.40
2016,02,12,12,58,13.40
2016,02,12,12,59,13.40
2016,02,12,13,00,13.40
2016,02,12,13,01,13.40
2016,02,12,13,02,13.40
2016,02,12,13,03,13.40
2016,02,12,13,04,13.40
2016,02,12,13,05,13.40
2016,02,12,13,06,13.40
2016,02,12,13,07,13.40
2016,02,12,13,08,13.50
2016,02,12,13,09,13.50
2016,02,12,13,10,13.50
2016,02,12,13,11,13.50
2016,02,12,13,12,13.50
2016,02,12,13,13,13.50
2016,02,12,13,14,13.60
2016,02,12,13,15,13.60
2016,02,12,13,16,13.60
2016,02,12,13,17,13.60
2016,02,12,13,18,13.60
2016,02,12,13,19,13.60
2016,02,12,13,20,13.60
2016,02,12,13,21,13.60
2016,02,12,13,22,13.60
2016,02,12,13,23,13.60
2016,02,12,13,24,13.60
2016,02,12,13,25,13.60
2016,02,12,13,26,13.60
2016,02,12,13,27,13.60
2016,02,12,13,28,13.60
2016,02,12,13,29,13.50
2016,02,12,13,30,13.50
2016,02,12,13,31,13.50
2016,02,12,13,32,13.60
2016,02,12,13,33,13.60
2016,02,12,13,34,13.60
2016,02,12,13,35,13.60
2016,02,12,13,36,13.60
2016,02,12,13,37,13.70
2016,02,12,13,38,13.70
2016,02,12,13,39,13.70
2016,02,12,13,40,13.70
2016,02,12,13,41,13.70
2016,02,12,13,42,13.70
2016,02,12,13,43,13.70
2016,02,12,13,44,13.70
2016,02,12,13,45,13.70
2016,02,12,13,46,13.70
2016,02,12,13,47,13.70
2016,02,12,13,48,13.70
2016,02,12,13,49,13.70
2016,02,12,13,50,13.60
2016,02,12,13,51,13.60
2016,02,12,13,52,13.60
2016,02,12,13,53,13.60
2016,02,12,13,54,13.50
2016,02,12,13,55,13.40
2016,02,12,13,56,13.40
2016,02,12,13,57,13.40
2016,02,12,13,58,13.50
2016,02,12,13,59,13.50
2016,02,12,14,00,13.60
2016,02,12,14,01,13.60
2016,02,12,14,02,13.60
2016,02,12,14,03,13.70
2016,02,12,14,04,13.70
2016,02,12,14,05,13.70
2016,02,12,14,06,13.70
2016,02,12,14,07,13.70
2016,02,12,14,08,13.70
2016,02,12,14,09,13.70
2016,02,12,14,10,13.70
2016,02,12,14,11,13.70
2016,02,12,14,12,13.70
2016,02,12,14,13,13.70
2016,02,12,14,14,13.70
2016,02,12,14,15,13.70
2016,02,12,14,16,13.70
2016,02,12,14,17,13.70
2016,02,12,14,18,13.70
2016,02,12,14,19,13.80
2016,02,12,14,20,13.80
2016,02,12,14,21,13.80
2016,02,12,14,22,13.80
2016,02,12,14,23,13.80
2016,02,12,14,24,13.80
2016,02,12,14,25,13.80
2016,02,12,14,26,13.80
2016,02,12,14,27,13.80
2016,02,12,14,28,13.80
2016,02,12,14,29,13.80
2016,02,12,14,30,13.80
2016,02,12,14,31,13.80
2016,02,12,14,32,13.80
2016,02,12,14,33,13.90
2016,02,12,14,34,13.90
2016,02,12,14,35,13.80
2016,02,12,14,36,13.80
2016,02,12,14,37,13.80
2016,02,12,14,38,13.80
2016,02,12,14,39,13.80
2016,02,12,14,40,13.80
2016,02,12,14,41,13.80
2016,02,12,14,42,13.80
2016,02,12,14,43,13.80
2016,02,12,14,44,13.80
2016,02,12,14,45,13.80
2016,02,12,14,46,13.80
2016,02,12,14,47,13.70
2016,02,12,14,48,13.70
2016,02,12,14,49,13.70
2016,02,12,14,50,13.70
2016,02,12,14,51,13.70
2016,02,12,14,52,13.70
2016,02,12,14,53,13.70
2016,02,12,14,54,13.80
2016,02,12,14,55,13.80
2016,02,12,14,56,13.80
2016,02,12,14,57,13.80
2016,02,12,14,58,13.80
2016,02,12,14,59,13.80
2016,02,12,15,00,13.80
2016,02,12,15,01,13.80
2016,02,12,15,02,13.80
2016,02,12,15,03,13.80
2016,02,12,15,04,13.80
2016,02,12,15,05,13.80
2016,02,12,15,06,13.80
2016,02,12,15,07,13.80
2016,02,12,15,08,13.80
2016,02,12,15,09,13.80
2016,02,12,15,10,13.80
2016,02,12,15,11,13.80
2016,02,12,15,12,13.80
2016,02,12,15,13,13.80
2016,02,12,15,14,13.90
2016,02,12,15,15,13.90
2016,02,12,15,16,13.90
2016,02,12,15,17,13.90
2016,02,12,15,18,13.90
2016,02,12,15,19,13.90
2016,02,12,15,20,13.90
2016,02,12,15,21,13.90
2016,02,12,15,22,13.90
2016,02,12,15,23,13.90
2016,02,12,15,24,13.90
2016,02,12,15,25,14.00
2016,02,12,15,26,14.00
2016,02,12,15,27,14.00
2016,02,12,15,28,14.00
2016,02,12,15,29,14.10
2016,02,12,15,30,14.10
2016,02,12,15,31,14.10
2016,02,12,15,32,14.10
2016,02,12,15,33,14.20
2016,02,12,15,34,14.20
2016,02,12,15,35,14.20
2016,02,12,15,36,14.20
2016,02,12,15,37,14.30
2016,02,12,15,38,14.30
2016,02,12,15,39,14.30
2016,02,12,15,40,14.30
2016,02,12,15,41,14.30
2016,02,12,15,42,14.30
2016,02,12,15,43,14.30
2016,02,12,15,44,14.30
2016,02,12,15,45,14.30
2016,02,12,15,46,14.20
2016,02,12,15,47,14.10
2016,02,12,15,48,14.10
2016,02,12,15,49,14.00
2016,02,12,15,50,13.90
2016,02,12,15,51,13.80
2016,02,12,15,52,13.80
2016,02,12,15,53,13.80
2016,02,12,15,54,13.70
2016,02,12,15,55,13.70
2016,02,12,15,56,13.70
2016,02,12,15,57,13.60
2016,02,12,15,58,13.60
2016,02,12,15,59,13.60
2016,02,12,16,00,13.50
2016,02,12,16,01,13.50
2016,02,12,16,02,13.40
2016,02,12,16,03,13.40
2016,02,12,16,04,13.40
2016,02,12,16,05,13.40
2016,02,12,16,06,13.30
2016,02,12,16,07,13.30
2016,02,12,16,08,13.30
2016,02,12,16,09,13.30
2016,02,12,16,10,13.30
2016,02,12,16,11,13.20
2016,02,12,16,12,13.20
2016,02,12,16,13,13.20
2016,02,12,16,14,13.20
2016,02,12,16,15,13.20
2016,02,12,16,16,13.10
2016,02,12,16,17,13.10
2016,02,12,16,18,13.10
2016,02,12,16,19,13.10
2016,02,12,16,20,13.10
2016,02,12,16,21,13.10
2016,02,12,16,22,13.00
2016,02,12,16,23,13.00
2016,02,12,16,24,13.00
2016,02,12,16,25,12.90
2016,02,12,16,26,12.90
2016,02,12,16,27,12.90
2016,02,12,16,28,12.90
2016,02,12,16,29,12.90
2016,02,12,16,30,12.90
2016,02,12,16,31,12.90
2016,02,12,16,32,12.80
2016,02,12,16,33,12.80
2016,02,12,16,34,12.80
2016,02,12,16,35,12.80
2016,02,12,16,36,12.80
2016,02,12,16,37,12.80
2016,02,12,16,38,12.80
2016,02,12,16,39,12.80
2016,02,12,16,40,12.80
2016,02,12,16,41,12.70
2016,02,12,16,42,12.70
2016,02,12,16,43,12.70
2016,02,12,16,44,12.70
2016,02,12,16,45,12.70
2016,02,12,16,46,12.70
2016,02,12,16,47,12.60
2016,02,12,16,48,12.60
2016,02,12,16,49,12.60
2016,02,12,16,50,12.60
2016,02,12,16,51,12.50
2016,02,12,16,52,12.50
2016,02,12,16,53,12.40
2016,02,12,16,54,12.40
2016,02,12,16,55,12.40
2016,02,12,16,56,12.40
2016,02,12,16,57,12.30
2016,02,12,16,58,12.30
2016,02,12,16,59,12.30
2016,02,12,17,00,12.30
2016,02,12,17,01,12.20
2016,02,12,17,02,12.20
2016,02,12,17,03,12.20
2016,02,12,17,04,12.20
2016,02,12,17,05,12.10
2016,02,12,17,06,12.10
2016,02,12,17,07,12.10
2016,02,12,17,08,12.10
2016,02,12,17,09,12.00
2016,02,12,17,10,12.00
2016,02,12,17,11,12.00
2016,02,12,17,12,11.90
2016,02,12,17,13,11.90
2016,02,12,17,14,11.90
2016,02,12,17,15,11.90
2016,02,12,17,16,11.90
2016,02,12,17,17,11.90
2016,02,12,17,18,11.80
2016,02,12,17,19,11.80
2016,02,12,17,20,11.80
2016,02,12,17,21,11.80
2016,02,12,17,22,11.80
2016,02,12,17,23,11.80
2016,02,12,17,24,11.80
2016,02,12,17,25,11.80
2016,02,12,17,26,11.80
2016,02,12,17,27,11.80
2016,02,12,17,28,11.80
2016,02,12,17,29,11.80
2016,02,12,17,30,11.80
2016,02,12,17,31,11.80
2016,02,12,17,32,11.80
2016,02,12,17,33,11.80
2016,02,12,17,34,11.70
2016,02,12,17,35,11.70
2016,02,12,17,36,11.70
2016,02,12,17,37,11.70
2016,02,12,17,38,11.60
2016,02,12,17,39,11.60
2016,02,12,17,40,11.60
2016,02,12,17,41,11.60
2016,02,12,17,42,11.60
2016,02,12,17,43,11.50
2016,02,12,17,44,11.50
2016,02,12,17,45,11.50
2016,02,12,17,46,11.40
2016,02,12,17,47,11.40
2016,02,12,17,48,11.40
2016,02,12,17,49,11.30
2016,02,12,17,50,11.30
2016,02,12,17,51,11.30
2016,02,12,17,52,11.20
2016,02,12,17,53,11.10
2016,02,12,17,54,11.10
2016,02,12,17,55,11.00
2016,02,12,17,56,11.00
2016,02,12,17,57,10.90
2016,02,12,17,58,10.90
2016,02,12,17,59,10.80
2016,02,12,18,00,10.80
2016,02,12,18,01,10.80
2016,02,12,18,02,10.70
2016,02,12,18,03,10.70
2016,02,12,18,04,10.70
2016,02,12,18,05,10.70
2016,02,12,18,06,10.60
2016,02,12,18,07,10.60
2016,02,12,18,08,10.60
2016,02,12,18,09,10.60
2016,02,12,18,10,10.60
2016,02,12,18,11,10.50
2016,02,12,18,12,10.50
2016,02,12,18,13,10.50
2016,02,12,18,14,10.40
2016,02,12,18,15,10.40
2016,02,12,18,16,10.40
2016,02,12,18,17,10.40
2016,02,12,18,18,10.40
2016,02,12,18,19,10.40
2016,02,12,18,20,10.40
2016,02,12,18,21,10.40
2016,02,12,18,22,10.40
2016,02,12,18,23,10.40
2016,02,12,18,24,10.40
2016,02,12,18,25,10.40
2016,02,12,18,26,10.40
2016,02,12,18,27,10.40
2016,02,12,18,28,10.40
2016,02,12,18,29,10.40
2016,02,12,18,30,10.40
2016,02,12,18,31,10.40
2016,02,12,18,32,10.40
2016,02,12,18,33,10.40
2016,02,12,18,34,10.40
2016,02,12,18,35,10.40
2016,02,12,18,36,10.30
2016,02,12,18,37,10.30
2016,02,12,18,38,10.30
2016,02,12,18,39,10.30
2016,02,12,18,40,10.30
2016,02,12,18,41,10.30
2016,02,12,18,42,10.30
2016,02,12,18,43,10.30
2016,02,12,18,44,10.30
2016,02,12,18,45,10.30
2016,02,12,18,46,10.30
2016,02,12,18,47,10.30
2016,02,12,18,48,10.30
2016,02,12,18,49,10.30
2016,02,12,18,50,10.30
2016,02,12,18,51,10.30
2016,02,12,18,52,10.30
2016,02,12,18,53,10.30
2016,02,12,18,54,10.30
2016,02,12,18,55,10.30
2016,02,12,18,56,10.30
2016,02,12,18,57,10.30
2016,02,12,18,58,10.30
2016,02,12,18,59,10.30
2016,02,12,19,00,10.30
2016,02,12,19,01,10.30
2016,02,12,19,02,10.30
2016,02,12,19,03,10.30
2016,02,12,19,04,10.30
2016,02,12,19,05,10.30
2016,02,12,19,06,10.30
2016,02,12,19,07,10.30
2016,02,12,19,08,10.30
2016,02,12,19,09,10.30
2016,02,12,19,10,10.30
2016,02,12,19,11,10.30
2016,02,12,19,12,10.30
2016,02,12,19,13,10.30
2016,02,12,19,14,10.30
2016,02,12,19,15,10.30
2016,02,12,19,16,10.20
2016,02,12,19,17,10.20
2016,02,12,19,18,10.20
2016,02,12,19,19,10.20
2016,02,12,19,20,10.20
2016,02,12,19,21,10.20
2016,02,12,19,22,10.20
2016,02,12,19,23,10.20
2016,02,12,19,24,10.20
2016,02,12,19,25,10.20
2016,02,12,19,26,10.20
2016,02,12,19,27,10.10
2016,02,12,19,28,10.10
2016,02,12,19,29,10.10
2016,02,12,19,30,10.10
2016,02,12,19,31,10.10
2016,02,12,19,32,10.10
2016,02,12,19,33,10.10
2016,02,12,19,34,10.10
2016,02,12,19,35,10.10
2016,02,12,19,36,10.10
2016,02,12,19,37,10.10
2016,02,12,19,38,10.00
2016,02,12,19,39,10.00
2016,02,12,19,40,10.00
2016,02,12,19,41,10.00
2016,02,12,19,42,10.00
2016,02,12,19,43,10.00
2016,02,12,19,44,9.90
2016,02,12,19,45,9.90
2016,02,12,19,46,9.90
2016,02,12,19,47,9.90
2016,02,12,19,48,9.90
2016,02,12,19,49,9.90
2016,02,12,19,50,9.80
2016,02,12,19,51,9.80
2016,02,12,19,52,9.80
2016,02,12,19,53,9.80
2016,02,12,19,54,9.80
2016,02,12,19,55,9.80
2016,02,12,19,56,9.70
2016,02,12,19,57,9.70
2016,02,12,19,58,9.70
2016,02,12,19,59,9.70
2016,02,12,20,00,9.70
2016,02,12,20,01,9.70
2016,02,12,20,02,9.70
2016,02,12,20,03,9.60
2016,02,12,20,04,9.60
2016,02,12,20,05,9.60
2016,02,12,20,06,9.60
2016,02,12,20,07,9.60
2016,02,12,20,08,9.60
2016,02,12,20,09,9.60
2016,02,12,20,10,9.60
2016,02,12,20,11,9.60
2016,02,12,20,12,9.60
2016,02,12,20,13,9.60
2016,02,12,20,14,9.60
2016,02,12,20,15,9.60
2016,02,12,20,16,9.60
2016,02,12,20,17,9.60
2016,02,12,20,18,9.60
2016,02,12,20,19,9.60
2016,02,12,20,20,9.60
2016,02,12,20,21,9.60
2016,02,12,20,22,9.60
2016,02,12,20,23,9.60
2016,02,12,20,24,9.70
2016,02,12,20,25,9.70
2016,02,12,20,26,9.70
2016,02,12,20,27,9.70
2016,02,12,20,28,9.70
2016,02,12,20,29,9.70
2016,02,12,20,30,9.70
2016,02,12,20,31,9.80
2016,02,12,20,32,9.80
2016,02,12,20,33,9.80
2016,02,12,20,34,9.80
2016,02,12,20,35,9.80
2016,02,12,20,36,9.80
2016,02,12,20,37,9.80
2016,02,12,20,38,9.90
2016,02,12,20,39,9.90
2016,02,12,20,40,9.90
2016,02,12,20,41,9.90
2016,02,12,20,42,9.90
2016,02,12,20,43,9.90
2016,02,12,20,44,9.90
2016,02,12,20,45,9.90
2016,02,12,20,46,9.90
2016,02,12,20,47,9.90
2016,02,12,20,48,9.90
2016,02,12,20,49,9.90
2016,02,12,20,50,9.90
2016,02,12,20,51,9.90
2016,02,12,20,52,9.90
2016,02,12,20,53,9.90
2016,02,12,20,54,9.90
2016,02,12,20,55,9.90
2016,02,12,20,56,9.90
2016,02,12,20,57,9.90
2016,02,12,20,58,9.90
2016,02,12,20,59,9.90
2016,02,12,21,00,9.90
2016,02,12,21,01,9.90
2016,02,12,21,02,9.90
2016,02,12,21,03,9.90
2016,02,12,21,04,9.90
2016,02,12,21,05,9.90
2016,02,12,21,06,9.90
2016,02,12,21,07,9.90
2016,02,12,21,08,9.90
2016,02,12,21,09,9.90
2016,02,12,21,10,9.90
2016,02,12,21,11,9.90
2016,02,12,21,12,9.90
2016,02,12,21,13,9.90
2016,02,12,21,14,9.90
2016,02,12,21,15,9.90
2016,02,12,21,16,9.90
2016,02,12,21,17,9.90
2016,02,12,21,18,9.90
2016,02,12,21,19,9.90
2016,02,12,21,20,9.90
2016,02,12,21,21,9.90
2016,02,12,21,22,9.90
2016,02,12,21,23,9.90
2016,02,12,21,24,9.90
2016,02,12,21,25,9.90
2016,02,12,21,26,9.90
2016,02,12,21,27,9.90
2016,02,12,21,28,9.90
2016,02,12,21,29,9.90
2016,02,12,21,30,9.90
2016,02,12,21,31,9.90
2016,02,12,21,32,9.90
2016,02,12,21,33,9.90
2016,02,12,21,34,9.90
2016,02,12,21,35,9.90
2016,02,12,21,36,9.90
2016,02,12,21,37,9.90
2016,02,12,21,38,9.90
2016,02,12,21,39,9.90
2016,02,12,21,40,9.90
2016,02,12,21,41,9.90
2016,02,12,21,42,9.80
2016,02,12,21,43,9.80
2016,02,12,21,44,9.80
2016,02,12,21,45,9.80
2016,02,12,21,46,9.80
2016,02,12,21,47,9.80
2016,02,12,21,48,9.80
2016,02,12,21,49,9.80
2016,02,12,21,50,9.80
2016,02,12,21,51,9.70
2016,02,12,21,52,9.70
2016,02,12,21,53,9.70
2016,02,12,21,54,9.70
2016,02,12,21,55,9.60
2016,02,12,21,56,9.60
2016,02,12,21,57,9.60
2016,02,12,21,58,9.60
2016,02,12,21,59,9.50
2016,02,12,22,00,9.50
2016,02,12,22,01,9.50
2016,02,12,22,02,9.40
2016,02,12,22,03,9.40
2016,02,12,22,04,9.40
2016,02,12,22,05,9.40
2016,02,12,22,06,9.30
2016,02,12,22,07,9.30
2016,02,12,22,08,9.30
2016,02,12,22,09,9.30
2016,02,12,22,10,9.30
2016,02,12,22,11,9.20
2016,02,12,22,12,9.20
2016,02,12,22,13,9.20
2016,02,12,22,14,9.20
2016,02,12,22,15,9.20
2016,02,12,22,16,9.20
2016,02,12,22,17,9.10
2016,02,12,22,18,9.10
2016,02,12,22,19,9.10
2016,02,12,22,20,9.10
2016,02,12,22,21,9.10
2016,02,12,22,22,9.00
2016,02,12,22,23,9.00
2016,02,12,22,24,9.00
2016,02,12,22,25,9.00
2016,02,12,22,26,8.90